Location: Franzen
(48.6167°N, 15.3833°E)
Time: 02:39:24
(UTC+00:00)

Transit 2A - Pass Details

Date: 06 August 2021
Orbit: 594 x 964 km, 66.7° (Epoch: 27 September)

Event Time Altitude Azimuth Distance (km) Brightness Sun altitude
Rises 07:35:26 0° 299° (WNW) 2,992 8.6 37.0°
Reaches altitude 10° 07:39:55 10° 339° (NNW) 2,178 8.1 37.7°
Maximum altitude 07:40:55 11° 351° (N) 2,164 8.2 37.9°
Drops below altitude 10° 07:41:58 10° 3° (N) 2,226 8.4 38.1°
Sets 07:46:50 0° 42° (NE) 3,273 9.5 38.8°
